Regional Weather Roundup
Issued by NWS Memphis, TN

Home | Current Version | Previous Version | Text Only | Print | Product List | Glossary On
Versions: 1 2 3 4 5 6 7 8 9 10 11 12 13 14 15 16 17 18 19 20 21 22 23 24 25 26 27 28 29 30 31 32 33 34 35 36 37 38 39 40 41 42 43 44 45 46 47 48 49 50
000
ASUS44 KMEG 231310
RWRMEG
MEMPHIS CWA HOURLY WEATHER ROUNDUP
NATIONAL WEATHER SERVICE MEMPHIS TN
800 AM CDT WED AUG 23 2017

...WEST TENNESSEE...

CITY           SKY/WX    TMP DP  RH WIND       PRES   REMARKS
MEMPHIS INTL   PTSUNNY   78  72  81 NE8       30.03R
NWS MEMPHIS      N/A     76 N/A N/A MISG        N/A
JACKSON        PTSUNNY   72  70  93 N6        30.06R
COVINGTON      CLOUDY    72  68  88 NE7       30.05R
SOMERVILLE     SUNNY     73  70  88 VRB3      30.03S
BOLIVAR        SUNNY     73  70  88 N6        30.03S
LEXINGTON      CLOUDY    70  70 100 N5        30.04R FOG
SELMER         MOSUNNY   72  70  94 N6        30.04R
SAVANNAH       CLOUDY    72  72 100 N6        30.02F
DYERSBURG      PTSUNNY   71  65  81 NE7       30.07R
PARIS          CLOUDY    68  66  94 N5        30.05S
HUNTINGDON     CLOUDY    70  68  94 N3        30.05S


...EASTERN ARKANSAS...

CITY           SKY/WX    TMP DP  RH WIND       PRES   REMARKS
JONESBORO      CLOUDY    72  66  81 NE8       30.06R
WEST MEMPHIS   CLOUDY    75  73  93 N8        30.03R
NEWPORT        PTSUNNY   71  66  84 NE9       30.07R
WALNUT RIDGE   PTSUNNY   70  63  78 N6        30.09R
BLYTHEVILLE    SUNNY     72  69  90 N8        30.07R
NW BLYTHEVILLE MOSUNNY   72  66  83 N7        30.07
SEARCY         CLOUDY    75  70  84 N9        30.07R
PINE BLUFF     PTSUNNY   77  72  84 N9        30.03S
MONTICELLO     PTSUNNY   77  73  87 NE6       30.02R


...NORTH MISSISSIPPI...

CITY           SKY/WX    TMP DP  RH WIND       PRES   REMARKS
TUPELO         MOSUNNY   75  70  84 N7        30.02R
OXFORD         MOSUNNY   72  68  88 NE3       30.05S
BATESVILLE     CLOUDY    73  72  96 CALM      30.03S
OLIVE BRANCH   PTSUNNY  N/A N/A N/A N5        30.03R
TUNICA         LGT RAIN  73  73 100 W5        30.04R
CLARKSDALE       N/A     75  75 100 NW3       30.03R FOG
GREENWOOD      CLOUDY    76  72  87 CALM      30.01S
COLUMBUS       MOSUNNY   76  76 100 N3        30.00R
STARKVILLE     CLOUDY    73  72  94 N3        30.02S
GOLDEN TRIANGL CLOUDY    75  68  78 N6        29.96S


...SOUTHEAST MISSOURI...

CITY           SKY/WX    TMP DP  RH WIND       PRES   REMARKS
KENNETT        PTSUNNY   70  64  83 N9        30.07R HAZE
MALDEN         MOSUNNY   70  59  68 N7        30.09R
WEST PLAINS    CLOUDY    64  58  80 NE6       30.14R
POPLAR BLUFF   PTSUNNY   68  61  78 N7        30.09R
CAPE GIRARDEAU PTSUNNY   66  60  81 NW3       30.09R


...NORTHWEST ALABAMA...

CITY           SKY/WX    TMP DP  RH WIND       PRES   REMARKS
MUSCLE SHOALS  PTSUNNY   74  70  87 CALM      30.04S


...MIDDLE TENNESSEE...

CITY           SKY/WX    TMP DP  RH WIND       PRES   REMARKS
NASHVILLE      PTSUNNY   72  68  87 N3        30.04R
CLARKSVILLE    MOSUNNY   69  65  86 N6        30.05R
COLUMBIA       PTSUNNY   72  72 100 N3        30.02R


...WESTERN KENTUCKY...

CITY           SKY/WX    TMP DP  RH WIND       PRES   REMARKS
PADUCAH        MOSUNNY   68  60  75 N5        30.07R
FORT CAMPBELL  SUNNY     69  65  89 N7        30.05R


...CENTRAL ARKANSAS...

CITY           SKY/WX    TMP DP  RH WIND       PRES   REMARKS
LITTLE ROCK    CLOUDY    74  73  97 VRB5      30.04S


SKY/WX REPORTED AS FAIR MEANS FEW OR NO CLOUDS BELOW
12 THOUSAND FEET.





USA.gov is the U.S. government's official web portal to all federal, state and local government web resources and services.